Probability
0 0 0 0 0 0 0 0 0 0 0 0 0 0 0 0 0 0 0 0 0 0 0 0 0 0 0 0 0 0 0 0 0 0 0 1 2 3 3 3 3 2 1
0 0 0 0 0 0 0 0 0 0 0 0 0 0 0 0 0 0 0 0 0 0 0 0 0 0 0 0 0 0 0 0 0 0 1 2 3 3 3 3 3 2 1
0 0 0 0 0 0 0 0 0 0 0 0 0 0 0 0 0 0 1 0 0 0 0 1 1 1 0 0 0 0 0 0 0 0 1 3 3 4 4 3 3 2 1
0 0 0 0 0 0 0 0 0 0 0 0 0 0 0 0 0 0 1 1 1 1 1 1 2 2 1 0 0 0 0 0 0 1 2 3 4 5 5 4 4 3 1
0 0 0 0 0 0 0 0 0 0 0 0 0 0 0 0 0 0 0 1 2 1 1 1 3 3 2 0 0 0 0 0 0 1 2 3 4 5 6 6 5 3 1
1 0 1 1 0 1 1 0 0 0 0 0 0 0 0 0 0 0 0 1 1 1 0 1 2 2 1 0 0 0 1 1 1 2 3 3 3 4 5 6 5 3 2
2 1 2 2 2 2 2 1 1 0 0 0 0 0 0 0 0 0 0 0 0 0 0 0 1 1 0 0 0 0 1 3 3 3 4 4 3 3 4 4 4 3 2
2 2 2 3 3 3 3 3 2 1 0 0 0 0 0 0 0 0 0 0 0 0 0 0 0 0 0 0 0 0 1 2 2 2 3 4 3 3 3 3 3 2 2
1 2 3 3 3 3 3 3 3 2 1 0 0 0 0 0 0 0 0 0 0 0 0 0 0 0 0 0 0 0 0 1 1 1 2 3 3 1 1 2 3 3 2
0 1 3 3 3 3 3 3 3 2 1 0 0 0 0 0 0 0 0 0 0 0 0 0 0 0 0 0 0 0 0 0 0 1 2 3 3 1 0 1 3 3 3
0 1 2 3 3 3 3 3 2 1 1 0 0 0 0 0 0 0 0 0 0 0 0 0 0 0 0 0 0 0 0 0 0 1 2 3 3 2 1 1 2 3 3
0 0 1 1 2 3 2 1 1 0 0 0 0 0 0 0 0 0 0 0 0 0 0 0 0 0 0 0 0 0 0 0 0 0 1 2 3 2 1 0 1 2 3
0 0 0 0 1 1 2 1 0 0 0 0 0 0 0 0 0 0 0 0 0 0 0 0 0 0 0 0 0 0 0 1 1 1 1 1 2 1 0 0 0 1 2
0 0 0 0 0 0 1 1 1 1 1 1 0 0 0 0 0 0 0 0 0 0 0 0 0 0 0 0 0 0 0 1 2 2 2 1 0 0 0 0 0 0 1
0 0 0 0 0 0 0 1 1 2 2 1 1 1 1 2 1 0 0 0 0 0 0 0 0 0 0 0 0 0 0 1 2 3 2 1 0 1 1 1 0 0 0
0 0 0 0 0 0 0 0 1 1 1 1 1 1 2 3 2 1 1 0 0 0 0 0 0 0 0 0 0 0 0 0 1 2 1 0 1 2 2 1 0 0 0
0 0 0 0 0 0 0 0 0 0 0 1 2 2 2 3 3 3 2 1 0 0 0 0 0 0 0 0 0 0 0 0 1 1 1 1 2 2 1 0 0 0 0
0 0 0 0 0 0 0 0 0 0 0 1 2 2 3 3 3 3 3 2 1 0 0 0 0 0 0 0 0 0 0 0 0 1 2 3 3 2 1 0 0 0 0
0 0 0 0 0 0 0 0 0 0 0 0 1 2 3 3 3 3 3 3 1 0 0 0 0 0 0 0 0 0 0 0 0 1 2 3 3 1 0 0 0 0 0
0 0 0 0 0 0 0 0 0 0 0 0 0 1 1 2 2 2 3 3 2 1 0 0 0 0 0 0 0 0 0 0 0 1 2 3 2 1 0 0 0 0 0
0 0 0 0 0 0 0 0 0 0 0 0 0 0 0 0 0 1 1 2 2 1 0 0 0 0 0 0 0 0 0 0 0 0 1 2 2 1 0 0 0 0 0
0 0 0 0 0 0 0 0 0 0 0 0 0 0 0 0 0 0 0 1 1 1 0 0 0 0 0 0 0 0 0 0 0 0 0 1 1 0 0 0 0 0 0
0 0 0 0 0 0 0 0 0 0 0 0 0 0 0 0 0 0 0 0 0 0 0 0 0 0 0 0 0 0 0 0 0 0 0 0 0 0 0 0 0 0 0
0 0 0 0 0 0 0 0 0 0 0 0 0 0 0 0 0 0 0 0 0 0 0 0 0 0 0 0 0 0 0 0 0 0 0 0 0 0 0 0 0 0 0
0 0 0 0 0 0 0 0 0 0 0 0 0 0 0 0 0 0 0 0 0 0 0 0 0 0 0 0 0 0 0 0 0 0 0 0 0 0 0 0 0 0 0
0 0 0 0 0 0 0 0 0 0 0 0 0 0 0 0 0 0 0 0 0 0 0 0 0 0 0 0 0 0 0 0 0 0 0 0 0 0 0 0 0 0 0
Wind_Speed
2 1 1 1 1 1 1 1 2 2 2 3 3 3 3 3 3 2 2 5 6 6 6 6 6 6 6 5 5 5 5 4 4 6 7 9 9 9 9 9 8 8 8
2 2 1 1 1 1 1 1 2 2 2 2 3 3 3 2 2 2 2 3 6 6 6 6 5 5 5 5 6 5 5 5 6 7 8 9 9 9 9 9 8 8 8
3 2 2 1 1 1 2 2 2 2 2 3 3 3 2 2 2 2 2 2 2 4 5 5 5 5 5 5 5 5 6 6 6 7 8 9 9 9 8 9 8 7 7
3 3 2 1 1 2 2 2 2 2 2 2 2 2 2 2 2 1 2 2 1 2 3 5 5 4 5 5 5 5 6 6 6 7 8 9 9 8 8 8 8 7 7
3 3 2 1 1 2 2 2 2 2 2 2 2 2 2 2 1 2 2 2 2 2 2 3 5 4 4 4 5 5 5 6 6 7 7 8 8 8 8 8 8 7 7
3 3 2 2 2 2 2 2 2 2 2 1 2 2 2 2 1 1 1 1 2 1 1 2 2 3 4 4 4 4 5 5 6 6 6 7 7 7 8 8 8 7 7
3 3 2 2 2 2 2 2 2 2 2 1 2 2 3 3 2 1 1 1 2 1 1 2 2 2 2 4 3 3 4 5 5 6 7 7 7 8 8 8 8 8 7
2 3 3 2 2 2 2 2 2 1 1 1 2 2 2 3 3 3 2 2 2 2 2 2 2 2 2 2 3 3 3 4 5 5 6 7 7 8 8 8 8 7 7
2 2 3 3 2 2 2 1 2 2 1 0 1 3 2 1 2 3 3 2 2 2 2 2 2 2 2 2 2 2 4 3 3 5 6 7 7 7 7 7 7 7 7
3 2 2 3 2 2 2 1 2 2 2 1 0 0 1 3 2 1 3 2 2 2 2 2 2 2 2 2 2 3 4 4 4 5 6 7 6 6 6 6 6 6 6
2 2 2 2 2 2 2 2 2 2 2 2 1 1 1 1 1 2 1 2 2 2 1 1 1 1 2 1 1 2 3 4 4 4 5 5 5 6 5 5 5 5 5
1 2 2 2 1 1 1 1 2 2 1 2 1 1 2 1 1 2 1 1 1 2 2 1 1 1 1 1 2 3 3 3 3 4 4 4 4 4 5 5 4 4 4
1 1 1 1 1 1 1 1 1 2 2 2 2 1 1 1 1 2 2 1 0 1 1 2 1 1 1 1 1 3 2 2 3 4 3 3 3 3 4 4 4 3 3
1 0 1 1 0 1 1 1 1 1 1 2 1 1 1 1 1 2 2 2 1 1 1 1 1 1 1 1 1 2 1 2 2 3 3 3 3 3 3 3 3 3 3
0 0 0 1 0 0 1 1 1 1 1 1 1 1 1 1 1 1 1 2 3 1 1 1 1 1 1 1 1 1 1 1 2 3 3 3 3 3 3 2 2 2 2
0 0 0 0 0 0 0 1 1 1 1 1 1 1 1 1 1 1 1 1 2 2 2 1 1 1 1 1 1 1 1 1 1 2 3 3 3 3 3 2 1 1 2
0 0 1 0 0 0 0 1 1 1 1 1 1 2 2 2 1 1 1 1 1 2 2 1 1 1 1 0 1 1 1 0 0 2 3 3 3 3 3 2 2 1 1
0 0 0 1 0 0 1 1 2 1 2 2 2 2 2 1 2 1 1 2 2 2 2 2 1 0 0 1 0 0 0 1 0 1 2 3 4 3 3 3 2 2 1
1 0 0 0 1 1 1 1 2 2 2 2 2 3 3 2 2 2 2 2 2 1 1 2 1 0 0 0 1 0 0 1 1 0 1 2 3 4 4 3 3 2 2
0 0 0 1 1 1 1 1 1 1 1 1 2 2 2 3 3 3 2 2 2 2 2 2 1 1 0 0 1 0 0 1 1 1 1 1 2 3 3 3 4 4 4
0 0 0 1 1 1 1 1 2 1 1 1 1 1 2 2 3 2 2 2 3 2 2 2 2 1 1 1 1 1 1 1 1 1 1 1 1 1 2 3 4 4 4
0 1 0 0 1 1 1 0 1 1 2 1 1 1 2 2 2 3 3 3 4 4 4 3 2 3 3 3 2 2 1 1 1 1 1 1 1 2 2 2 3 4 4
0 0 1 0 1 2 2 1 1 2 2 2 2 2 2 2 1 2 2 2 3 4 5 5 5 5 5 5 4 3 2 2 3 2 2 2 1 2 3 3 4 5 5
1 0 1 1 1 2 3 2 1 1 1 2 2 2 2 2 2 1 1 1 1 2 4 3 4 6 5 5 5 5 4 2 1 1 2 2 2 2 2 2 5 5 5
1 1 1 1 1 3 4 3 2 1 1 2 2 2 2 2 3 1 2 2 2 2 2 2 2 2 3 4 4 3 2 1 1 2 2 2 2 1 2 2 3 5 5
1 0 0 1 1 2 4 4 3 0 0 1 1 2 2 2 2 1 2 3 2 2 1 1 1 1 1 3 4 5 5 3 2 2 3 2 2 1 1 2 2 2 3
Wind_Direction
127 123 104 85 74 70 74 71 62 60 65 67 70 77 78 71 62 53 35 62 73 80 88 90 90 89 88 84 82 80 85 93 110 125 134 132 127 122 119 118 118 116 115
124 118 105 85 72 83 88 91 84 75 69 76 72 72 76 76 64 62 47 50 62 71 76 78 81 87 88 83 79 76 79 81 100 117 127 128 127 124 122 121 118 117 117
125 118 109 96 85 93 89 85 75 71 73 71 68 68 70 69 68 61 54 37 36 60 73 75 78 82 84 84 81 78 79 83 92 109 120 125 125 124 124 121 119 117 116
127 117 108 106 98 91 91 95 84 76 64 63 60 55 61 60 61 66 58 45 26 28 46 58 59 66 76 80 84 85 83 83 87 104 114 120 123 124 124 122 120 116 115
124 119 115 114 99 86 85 102 87 94 89 70 66 54 45 51 49 66 58 48 37 34 33 46 48 48 59 72 79 89 91 89 92 107 115 119 122 122 122 120 117 115 115
110 109 112 103 97 91 77 85 93 77 90 95 77 53 22 17 34 49 59 49 35 34 48 47 31 31 42 55 73 84 94 98 97 107 119 120 122 122 124 122 121 114 110
102 105 106 96 93 103 111 111 105 86 64 71 72 33 8 9 18 17 27 48 35 25 59 55 43 33 22 32 49 75 89 99 101 101 105 113 118 123 124 124 124 117 112
96 106 109 113 105 99 85 87 102 94 60 77 107 85 17 354 352 6 14 41 25 26 46 57 52 51 41 28 34 57 75 98 106 107 107 109 114 115 119 122 124 121 118
92 95 110 117 118 117 122 118 119 128 153 299 120 135 141 217 314 341 359 19 17 29 27 45 57 50 57 47 32 45 65 80 115 120 118 113 112 115 113 118 121 119 115
76 89 100 112 123 123 129 137 116 125 138 150 356 36 153 157 152 334 338 356 17 32 21 44 51 46 50 53 57 75 79 80 101 112 119 117 117 117 112 110 115 118 119
53 70 82 96 110 121 133 121 111 113 122 137 149 138 82 79 121 145 268 331 2 1 7 20 51 47 45 60 66 82 94 97 101 109 117 122 123 125 120 113 112 123 124
27 42 76 85 106 124 137 141 141 139 139 130 130 134 142 149 163 149 177 240 327 324 342 7 35 38 37 48 68 83 103 113 118 118 117 119 120 124 127 124 123 129 134
9 342 64 89 110 152 154 140 137 155 150 140 148 157 153 160 160 147 144 177 216 310 347 4 3 17 39 47 49 71 94 118 130 132 126 126 126 122 127 135 137 137 143
245 262 89 104 105 116 129 132 138 185 148 151 154 150 153 175 155 149 159 154 129 349 358 311 338 357 11 29 38 63 80 126 147 153 150 148 142 133 131 135 139 146 144
250 323 99 90 32 52 86 125 142 199 161 164 170 160 159 192 172 172 159 152 149 166 260 271 291 323 338 24 48 60 56 146 146 154 158 160 156 150 141 134 143 146 143
325 44 82 110 70 17 37 114 142 175 145 184 184 160 177 199 193 184 184 174 150 158 197 247 247 294 309 19 44 37 39 117 157 167 171 170 170 164 153 146 143 157 158
326 235 204 184 161 159 117 127 189 190 177 200 200 182 206 198 180 194 181 159 162 151 172 264 305 345 38 34 6 18 16 2 246 206 190 184 183 176 167 156 151 142 161
295 240 190 148 188 194 196 184 207 211 203 210 217 199 218 209 205 202 182 184 187 180 163 188 262 324 320 249 191 101 4 350 304 245 206 202 197 191 184 174 170 159 163
302 12 73 183 231 226 224 231 218 220 219 223 217 207 216 201 222 221 198 193 199 190 160 159 192 229 316 344 69 2 353 342 311 262 218 219 214 209 202 196 200 204 202
277 259 172 266 255 239 223 228 222 215 219 236 228 218 217 205 210 211 202 199 184 168 161 159 166 186 245 319 123 151 327 324 299 310 305 255 231 214 211 213 217 216 211
275 295 24 334 312 248 221 187 182 177 177 193 253 240 228 228 222 212 208 194 176 170 170 171 177 174 200 184 200 198 205 249 289 293 312 286 249 226 220 228 224 218 211
352 22 6 337 339 313 333 89 153 169 178 185 227 274 261 237 247 242 235 203 181 178 184 183 193 195 209 205 187 175 169 162 270 266 186 268 219 234 237 223 232 231 225
348 44 325 298 294 305 339 12 152 167 182 201 214 237 273 280 272 242 242 224 211 203 188 182 193 205 202 198 178 184 199 199 224 225 162 242 250 252 250 237 233 237 239
329 280 312 299 299 313 339 354 56 166 189 214 223 224 228 260 268 224 186 199 234 235 225 206 205 212 210 197 187 187 192 206 256 249 163 208 239 254 263 253 245 240 245
329 317 0 1 332 313 341 3 50 160 211 239 245 238 229 234 261 213 163 198 240 270 273 263 231 214 204 188 165 143 144 143 241 248 199 191 223 255 270 255 252 247 247
265 288 350 340 332 319 351 15 40 129 205 262 268 259 260 266 276 216 180 184 213 244 264 303 296 295 238 205 183 179 178 178 198 231 212 188 203 175 272 266 247 244 243